Overview Statistics Trail Chart Weather Telemetry Raw packets
 

This is the latest recevied weather packets stored in our database for station/object KB9OQF-5. If no packets are shown the sender has not sent any weather packets the latest 10 day(s).

<< 3 4 5 6 7 8 9 >>
Time Temp. Humidity Pressure Rain* Wind** Luminosity Snow
1788226934 25.56° C 82% 987 hPa 1.02 mm - - -
1788215034 33.33° C 46% 986 hPa 0 mm - - -
1788211534 32.78° C 46% 986 hPa 0 mm - - -
1788208034 30.56° C 63% 986 hPa 0 mm - - -
1788202783 25.56° C 78% 987 hPa 0 mm - - -
1788201384 25.56° C 78% 987.5 hPa 0 mm - - -
1788199634 25.56° C 76% 988 hPa 0 mm - - -
1788198584 25.56° C 77% 988 hPa 0 mm - - -
1788197183 25.56° C 76% 988 hPa 0 mm - - -
1788195433 26.11° C 75% 989 hPa 0 mm - - -
1788191933 26.11° C 72% 989 hPa 0 mm - - -
1788180733 22.78° C 84% 988 hPa 0 mm - - -
1788180033 22.22° C 87% 988 hPa 0 mm - - -
1788177939 21.11° C 89% 988 hPa 0 mm - - -
1788175484 20.56° C 89% 988 hPa 0 mm - - -
1788170046 21.67° C 88% 987.5 hPa 0 mm - - -
1788169884 21.67° C 88% 987.5 hPa 0 mm - - -
1788168134 21.67° C 88% 988 hPa 0 mm - - -
1788166733 21.67° C 88% 987 hPa 0 mm - - -
1788162585 22.22° C 86% 988 hPa 0 mm - - -
1788162535 22.22° C 86% 988 hPa 0 mm - - -
1788152033 22.78° C 82% 988 hPa 0 mm - - -
1788149238 22.78° C 81% 988 hPa 0 mm - - -
1788148883 22.78° C 81% 988 hPa 0 mm - - -
1788147483 22.78° C 81% 988 hPa 0 mm - - -

* Rain latest hour (hover to see other rain measurements)
** Current wind speed in m/s (hover to see current wind gust speed)